Torna al catalogo

COSMOS 1867 COOLANT

AttivoLEO
NORAD 39642·DEBRIS·🇷🇺 Russia

Lanciato Jul 10, 1987 da Baikonur Cosmodrome

Loading…

Prossimi Passaggi (prossime 24 ore)

TLE

AggiornatoSource: Space-Track

Epoca: Sep 13, 2026, 04:05 UTC

1 39642U 87060K   26256.17054961  .00000130  00000-0  83088-4 0  9994
2 39642  65.0082 129.5280 0019694 278.9524  80.9332 14.33589926650163

Traccia COSMOS 1867 COOLANT in tempo reale con AllMySat

Download on the App Store